Etusivu
METAR-TAF:

METAR-TAF

Lentoasemat :

Tillamook, Oregon, Yhdysvallat

Leveyspiiri: 45-25-06N, Pituuspiiri: 123-48-52W, korkeus merenpinnasta: 11 m

Tämänhetkinen sää

Tämä raportti tehtiin 36 minuuttia sitten, kello 13.55 UTC
Tuuli 3 kn kaakosta
Lämpötila 11°C
Kosteus 87%
Ilmanpaine 1015 hPa
Näkyvyys: 16.1 km
selkeää

METAR: KTMK 291355Z AUTO 14003KT 10SM CLR 11/09 A2998 RMK AO2

Aika: 07:31 (14:31 UTC)


TAF: puuttuu

Säähavainnot ja -ennusteet yli 4000 lentoasemalta (METAR- ja TAF-raportit).

Käytössä olevat sääasemat on merkitty karttaan keltaisilla ja punaisilla pisteillä.

Aseta hiiri pisteen päälle nähdäksesi sääaseman nimen.

Klikkaa sitten nähdäksesi säähavainnot ja -ennusteet.

Kartan vaihtaminen: klikkaa mustalla rastilla varustettuja vihreitä pisteitä, niin voit zoomata sisään; viivalla varustettua vihreää pistettä, niin voit zoomata ulos tai vihreitä nuolia, niin pääset viereisille kartoille.


METAR-TAF: